• en France
  • Liste des pays
  • À 7 jours
  • Température de l'eau
  • Carte satellitaire
  • Carte météo
  • Widgets météo
  • user-avatar
    Se connecter

    Météo par heure à Djambala

    Ce jour, 17 Octobre, Mercredi

    Heure Température Précipitation Vent Pression Humidité
    00:00 +21°C° 0 mm 2 m/s 695 mmHg 93%
    01:00 +21°C° 0 mm 2 m/s 695 mmHg 94%
    02:00 +21°C° 0 mm 2 m/s 695 mmHg 95%
    03:00 +21°C° 0 mm 2 m/s 695 mmHg 96%
    04:00 +20°C° 0 mm 2 m/s 694 mmHg 96%
    05:00 +21°C° 0 mm 2 m/s 695 mmHg 94%
    06:00 +21°C° 0 mm 2 m/s 695 mmHg 93%
    07:00 +22°C° 0 mm 3 m/s 696 mmHg 91%
    08:00 +24°C° 0.1 mm 3 m/s 696 mmHg 85%
    09:00 +26°C° 0.1 mm 3 m/s 696 mmHg 79%
    10:00 +27°C° 0.1 mm 3 m/s 696 mmHg 73%
    11:00 +28°C° 0.9 mm 2 m/s 696 mmHg 70%
    12:00 +28°C° 0.9 mm 2 m/s 695 mmHg 68%
    13:00 +29°C° 0.9 mm 2 m/s 694 mmHg 65%
    14:00 +29°C° 1.5 mm 2 m/s 694 mmHg 68%
    15:00 +28°C° 1.5 mm 1 m/s 693 mmHg 71%
    16:00 +28°C° 1.5 mm 1 m/s 693 mmHg 73%
    17:00 +26°C° 1.1 mm 1 m/s 693 mmHg 78%
    18:00 +25°C° 1.1 mm 1 m/s 693 mmHg 83%
    19:00 +24°C° 1.1 mm 1 m/s 694 mmHg 88%
    20:00 +24°C° 0.4 mm 1 m/s 694 mmHg 89%
    21:00 +23°C° 0.4 mm 1 m/s 694 mmHg 90%
    22:00 +23°C° 0.4 mm 2 m/s 695 mmHg 91%
    23:00 +23°C° 0.2 mm 2 m/s 694 mmHg 92%

    Demain, 18 Octobre, Jeudi

    Heure Température Précipitation Vent Pression Humidité
    00:00 +21°C° 0.2 mm 2 m/s 694 mmHg 92%
    01:00 +21°C° 0.2 mm 2 m/s 694 mmHg 93%
    02:00 +21°C° 0 mm 2 m/s 693 mmHg 94%
    03:00 +21°C° 0 mm 2 m/s 693 mmHg 95%
    04:00 +21°C° 0 mm 2 m/s 693 mmHg 95%
    05:00 +21°C° 0.4 mm 2 m/s 694 mmHg 94%
    06:00 +21°C° 0.4 mm 3 m/s 694 mmHg 92%
    07:00 +22°C° 0.4 mm 3 m/s 695 mmHg 91%
    08:00 +24°C° 0.5 mm 3 m/s 695 mmHg 88%
    09:00 +24°C° 0.5 mm 2 m/s 695 mmHg 85%
    10:00 +25°C° 0.5 mm 2 m/s 696 mmHg 82%
    11:00 +25°C° 1.7 mm 2 m/s 695 mmHg 82%
    12:00 +26°C° 1.7 mm 2 m/s 694 mmHg 81%
    13:00 +26°C° 1.7 mm 2 m/s 693 mmHg 80%
    14:00 +25°C° 1.7 mm 1 m/s 693 mmHg 82%
    15:00 +25°C° 1.7 mm 1 m/s 693 mmHg 85%
    16:00 +24°C° 1.7 mm 1 m/s 693 mmHg 87%
    17:00 +24°C° 0.2 mm 1 m/s 693 mmHg 88%
    18:00 +23°C° 0.2 mm 1 m/s 694 mmHg 90%
    19:00 +22°C° 0.2 mm 1 m/s 694 mmHg 91%
    20:00 +22°C° 0 mm 1 m/s 694 mmHg 91%
    21:00 +22°C° 0 mm 1 m/s 695 mmHg 92%
    22:00 +22°C° 0 mm 1 m/s 695 mmHg 92%
    23:00 +22°C° 0 mm 1 m/s 694 mmHg 92%

    Après-demain, 19 Octobre, Vendredi

    Heure Température Précipitation Vent Pression Humidité
    00:00 +22°C° 0 mm 1 m/s 694 mmHg 92%
    01:00 +22°C° 0 mm 1 m/s 694 mmHg 93%
    02:00 +21°C° 0 mm 1 m/s 693 mmHg 93%
    03:00 +21°C° 0 mm 1 m/s 693 mmHg 93%
    04:00 +21°C° 0 mm 1 m/s 693 mmHg 93%
    05:00 +22°C° 0 mm 1 m/s 693 mmHg 92%
    06:00 +22°C° 0 mm 1 m/s 694 mmHg 90%
    07:00 +22°C° 0 mm 1 m/s 695 mmHg 88%
    08:00 +23°C° 0 mm 1 m/s 695 mmHg 84%
    09:00 +24°C° 0 mm 1 m/s 696 mmHg 80%
    10:00 +25°C° 0 mm 1 m/s 696 mmHg 76%
    11:00 +26°C° 0 mm 1 m/s 695 mmHg 71%
    12:00 +27°C° 0 mm 1 m/s 695 mmHg 67%
    13:00 +29°C° 0 mm 1 m/s 694 mmHg 62%
    14:00 +28°C° 0 mm 1 m/s 693 mmHg 65%
    15:00 +28°C° 0 mm 1 m/s 693 mmHg 67%
    16:00 +27°C° 0 mm 1 m/s 692 mmHg 69%
    17:00 +26°C° 0 mm 1 m/s 693 mmHg 72%
    18:00 +25°C° 0 mm 1 m/s 693 mmHg 74%
    19:00 +25°C° 0 mm 1 m/s 694 mmHg 76%
    20:00 +24°C° 0.1 mm 1 m/s 694 mmHg 77%
    21:00 +24°C° 0.1 mm 1 m/s 694 mmHg 79%
    22:00 +24°C° 0.1 mm 1 m/s 695 mmHg 80%
    23:00 +24°C° 0.1 mm 1 m/s 694 mmHg 81%

    20 Octobre, Samedi

    Heure Température Précipitation Vent Pression Humidité
    00:00 +23°C° 0.1 mm 1 m/s 694 mmHg 82%
    01:00 +23°C° 0.1 mm 1 m/s 693 mmHg 83%
    02:00 +23°C° 0 mm 1 m/s 693 mmHg 85%
    03:00 +22°C° 0 mm 1 m/s 693 mmHg 87%
    04:00 +22°C° 0 mm 1 m/s 693 mmHg 88%
    05:00 +22°C° 0 mm 1 m/s 693 mmHg 87%
    06:00 +23°C° 0 mm 1 m/s 694 mmHg 87%
    07:00 +24°C° 0 mm 1 m/s 695 mmHg 86%
    08:00 +25°C° 0 mm 1 m/s 695 mmHg 78%
    09:00 +27°C° 0 mm 2 m/s 696 mmHg 71%
    10:00 +29°C° 0 mm 2 m/s 696 mmHg 63%
    11:00 +30°C° 0.5 mm 2 m/s 695 mmHg 62%
    12:00 +30°C° 0.5 mm 1 m/s 695 mmHg 60%
    13:00 +31°C° 0.5 mm 1 m/s 694 mmHg 58%
    14:00 +30°C° 0.7 mm 1 m/s 693 mmHg 60%
    15:00 +30°C° 0.7 mm 1 m/s 693 mmHg 61%
    16:00 +30°C° 0.7 mm 1 m/s 693 mmHg 63%
    17:00 +28°C° 0.7 mm 1 m/s 693 mmHg 70%
    18:00 +26°C° 0.7 mm 1 m/s 693 mmHg 77%
    19:00 +25°C° 0.7 mm 1 m/s 694 mmHg 84%
    20:00 +24°C° 0 mm 1 m/s 694 mmHg 85%
    21:00 +24°C° 0 mm 1 m/s 694 mmHg 86%
    22:00 +24°C° 0 mm 1 m/s 694 mmHg 87%
    23:00 +23°C° 0 mm 1 m/s 694 mmHg 87%

    21 Octobre, Dimanche

    Heure Température Précipitation Vent Pression Humidité
    00:00 +23°C° 0 mm 1 m/s 693 mmHg 88%
    01:00 +23°C° 0 mm 1 m/s 693 mmHg 88%
    02:00 +23°C° 0.2 mm 1 m/s 693 mmHg 88%
    03:00 +21°C° 0.2 mm 0 m/s 693 mmHg 89%
    04:00 +20°C° 0.2 mm 0 m/s 693 mmHg 89%
    05:00 +23°C° 0.2 mm 1 m/s 693 mmHg 89%
    06:00 +23°C° 0.2 mm 1 m/s 694 mmHg 88%
    07:00 +24°C° 0.2 mm 1 m/s 695 mmHg 88%
    08:00 +25°C° 1.4 mm 2 m/s 695 mmHg 83%
    09:00 +26°C° 1.4 mm 2 m/s 695 mmHg 79%
    10:00 +27°C° 1.4 mm 3 m/s 695 mmHg 74%
    11:00 +28°C° 0.3 mm 3 m/s 695 mmHg 70%
    12:00 +28°C° 0.3 mm 2 m/s 694 mmHg 67%
    13:00 +29°C° 0.3 mm 2 m/s 693 mmHg 63%
    14:00 +29°C° 0 mm 2 m/s 693 mmHg 64%
    15:00 +29°C° 0 mm 2 m/s 692 mmHg 65%
    16:00 +29°C° 0 mm 1 m/s 692 mmHg 66%
    17:00 +27°C° 0 mm 1 m/s 692 mmHg 70%
    18:00 +26°C° 0 mm 1 m/s 693 mmHg 74%
    19:00 +25°C° 0 mm 1 m/s 693 mmHg 78%
    20:00 +23°C° 0 mm 0 m/s 693 mmHg 79%
    21:00 +22°C° 0 mm 0 m/s 693 mmHg 80%
    22:00 +22°C° 0 mm 0 m/s 693 mmHg 81%
    23:00 +22°C° 0.1 mm 0 m/s 693 mmHg 82%

    22 Octobre, Lundi

    Heure Température Précipitation Vent Pression Humidité
    00:00 +21°C° 0.1 mm 0 m/s 692 mmHg 84%
    01:00 +21°C° 0.1 mm 0 m/s 692 mmHg 85%
    02:00 +21°C° 0 mm 0 m/s 692 mmHg 86%
    03:00 +21°C° 0 mm 0 m/s 692 mmHg 86%
    04:00 +22°C° 0 mm 1 m/s 691 mmHg 87%
    05:00 +23°C° 0 mm 1 m/s 692 mmHg 86%
    06:00 +24°C° 0 mm 1 m/s 693 mmHg 84%
    07:00 +24°C° 0 mm 1 m/s 693 mmHg 83%
    08:00 +26°C° 0 mm 1 m/s 694 mmHg 76%
    09:00 +28°C° 0 mm 1 m/s 694 mmHg 69%
    10:00 +30°C° 0 mm 1 m/s 694 mmHg 61%
    11:00 +30°C° 0.5 mm 1 m/s 693 mmHg 60%
    12:00 +31°C° 0.5 mm 1 m/s 693 mmHg 58%
    13:00 +32°C° 0.5 mm 1 m/s 692 mmHg 56%
    14:00 +31°C° 1.6 mm 1 m/s 692 mmHg 61%
    15:00 +30°C° 1.6 mm 1 m/s 691 mmHg 66%
    16:00 +29°C° 1.6 mm 2 m/s 691 mmHg 71%
    17:00 +27°C° 0.2 mm 2 m/s 691 mmHg 76%
    18:00 +26°C° 0.2 mm 2 m/s 692 mmHg 80%
    19:00 +25°C° 0.2 mm 2 m/s 692 mmHg 85%
    20:00 +24°C° 0.1 mm 2 m/s 692 mmHg 85%
    21:00 +24°C° 0.1 mm 1 m/s 692 mmHg 84%
    22:00 +24°C° 0.1 mm 1 m/s 693 mmHg 84%
    23:00 +24°C° 0 mm 1 m/s 692 mmHg 84%
    Voir plus